Flag for Poland Weather past 2 weeks in Gorzów Wielkopolski, Poland

Now
50 °F

Light rain. Low clouds.


Feels Like: 50 °F
Forecast: 45 / 52 °F
Wind: 2 mph from Southwest

Location: Gorzow Wlkp

Current Time: Oct 21, 2014 at 7:56:01 AM

Latest Report: Oct 21, 2014 at 7:00 AM


Visibility: 3 mi

Pressure: 29.81 "Hg

Humidity: 98%

Dew point: 49 °F

Location of Gorzów WielkopolskiLocation

Historic Weather in Gorzów Wielkopolski — Graph

°F

Gorzów Wielkopolski temperature yesterday

Maximum temperature yesterday: 61 °F (at 12:00 AM)
Minimum temperature yesterday: 51 °F (at 11:00 PM)
Average temperature yesterday: 56 °F

Past Weeks' High & Low Weather Summary

 TemperatureHumidityPressure
High71 °F (Oct 9, 3:00 PM)100% (Oct 16, 4:00 AM)30.25 "Hg (Oct 16, 4:00 AM)
Low42 °F (Oct 6, 7:00 AM)46% (Oct 6, 2:00 PM)29.71 "Hg (Oct 15, 6:00 PM)
Average57 °F87%29.90 "Hg
* Reported Oct 6 6:00 AM — Oct 21 6:00 AM, Gorzów Wielkopolski, Weather by CustomWeather, © 2014

Note: Actual official high and low records may vary slightly from our data, if they occured in-between our weather recording intervals... More about our weather records

Advertising

Gorzów Wielkopolski weather history for previous 24 hours

 ConditionsComfort  
Time TempWeatherWind HumidityBarometerVisibility
6:00 AM
Oct 21
50 °FLight rain. Low clouds.2 mph97%29.82 "Hg4 mi
5:00 AM51 °FLight rain. Low clouds.2 mph96%29.82 "Hg4 mi
4:00 AM52 °FLight rain. Overcast.2 mph91%29.84 "Hg6 mi
3:00 AM52 °FLight rain. Low clouds.2 mph98%29.84 "Hg2 mi
2:00 AM51 °FSprinkles. Overcast.2 mph98%29.85 "Hg2 mi
1:00 AM50 °FFog.2 mph98%29.85 "Hg2 mi
12:00 AM50 °FFog.1 mph97%29.86 "Hg4 mi
11:00 PM
Oct 20
51 °FPassing clouds.2 mph93%29.87 "Hg12 mi
10:00 PM53 °FPassing clouds.3 mph92%29.87 "Hg12 mi
9:00 PM52 °FPassing clouds.2 mph95%29.87 "Hg9 mi
8:00 PM53 °FOvercast.2 mph93%29.86 "Hg12 mi
7:00 PM55 °FOvercast.5 mph84%29.86 "Hg19 mi
6:00 PM55 °FOvercast.6 mph85%29.86 "Hg19 mi
5:00 PM55 °FSprinkles. Overcast.5 mph86%29.86 "Hg12 mi
4:00 PM56 °FRain showers. Overcast.3 mph92%29.87 "Hg9 mi
3:00 PM59 °FOvercast.5 mph78%29.85 "Hg19 mi
2:00 PM60 °FOvercast.7 mph75%29.85 "Hg19 mi
1:00 PM60 °FOvercast.6 mph74%29.86 "Hg19 mi
12:00 PM59 °FOvercast.5 mph77%29.86 "Hg19 mi
11:00 AM58 °FOvercast.6 mph81%29.87 "Hg25 mi
10:00 AM57 °FScattered clouds.5 mph87%29.86 "Hg19 mi
9:00 AM55 °FPassing clouds.5 mph93%29.86 "Hg16 mi
8:00 AM54 °FPassing clouds.5 mph96%29.86 "Hg16 mi
7:00 AM54 °FPassing clouds.2 mph96%29.86 "Hg6 mi
Weather by CustomWeather, © 2014

See weather overviewHow to use our weather pages